FW4356 Weather Reports


Display with metric or nautical units.
time (UTC)temp
F
wind
direction
speed
MPH
gust
MPH
rain 1hr
in
rain 24hr
in
rain mn
in
humidity
%
barometer
mb
20240713035546 73 120 0.0 1.0 0.00 0.00 0.00 94 1021.2
20240713035046 73 314 0.0 0.0 0.00 0.00 0.00 94 1021.2
20240713034546 73 314 0.0 0.0 0.00 0.00 0.00 94 1021.2
20240713034046 73 314 0.0 0.0 0.00 0.00 0.00 94 1021.3
20240713033545 73 314 0.0 0.0 0.00 0.00 0.00 94 1021.3
20240713033046 73 314 0.0 0.0 0.00 0.00 0.00 94 1021.3
20240713032545 73 314 0.0 0.0 0.00 0.00 0.00 94 1021.3
20240713032045 73 314 0.0 0.0 0.00 0.00 0.00 94 1021.3
20240713031603 73 314 0.0 0.0 0.00 0.00 0.00 94 1021.3
20240713031044 73 314 0.0 1.0 0.00 0.00 0.00 94 1021.4
20240713030544 73 314 0.0 1.0 0.00 0.00 0.00 93 1021.5
20240713030044 73 314 0.0 2.0 0.00 0.00 0.00 93 1021.4
20240713025544 73 314 0.0 3.0 0.00 0.00 0.00 93 1021.4
20240713025045 73 313 0.0 3.0 0.00 0.00 0.00 93 1021.4
20240713024544 73 99 0.0 1.0 0.00 0.00 0.00 92 1021.4
20240713024043 74 99 0.0 1.0 0.00 0.00 0.00 92 1021.5
20240713023543 74 99 0.0 6.0 0.00 0.00 0.00 92 1021.4
20240713023043 74 99 0.0 6.0 0.00 0.00 0.00 92 1021.4
20240713022543 74 108 0.0 6.0 0.00 0.00 0.00 92 1021.5
20240713022042 74 64 0.0 4.0 0.00 0.00 0.00 92 1021.5
20240713021546 74 70 0.0 1.0 0.00 0.00 0.00 91 1021.4
20240713021042 74 70 0.0 1.0 0.00 0.00 0.00 91 1021.4
20240713020546 74 70 0.0 0.0 0.00 0.00 0.00 91 1021.4
20240713020042 74 70 0.0 1.0 0.00 0.00 0.00 91 1021.3
20240713015543 74 70 0.0 1.0 0.00 0.00 0.00 91 1021.4
20240713015040 74 70 0.0 1.0 0.00 0.00 0.00 91 1021.2
20240713014539 74 70 0.0 1.0 0.00 0.00 0.00 91 1021.2
20240713014039 74 70 0.0 2.0 0.00 0.00 0.00 90 1021.1
20240713013539 74 70 0.0 2.0 0.00 0.00 0.00 90 1021.1
20240713013041 74 72 0.0 2.0 0.00 0.00 0.00 90 1021.0
20240713012539 74 72 0.0 1.0 0.00 0.00 0.00 90 1020.9
20240713012038 74 72 0.0 1.0 0.00 0.00 0.00 90 1020.9
20240713011607 74 72 0.0 1.0 0.00 0.00 0.00 90 1020.9
20240713011039 74 72 0.0 2.0 0.00 0.00 0.00 90 1020.8
20240713010539 74 72 0.0 2.0 0.00 0.00 0.00 90 1020.9
20240713010048 75 87 0.0 2.0 0.00 0.00 0.00 90 1020.9
20240713005541 75 151 0.0 2.0 0.00 0.00 0.00 90 1020.8
20240713005037 75 151 0.0 1.0 0.00 0.00 0.00 89 1020.7
20240713004536 75 151 0.0 1.0 0.00 0.00 0.00 89 1020.7
20240713004037 75 151 0.0 2.0 0.00 0.00 0.00 89 1020.6
20240713003540 75 151 0.0 2.0 0.00 0.00 0.00 89 1020.6
20240713003036 75 151 0.0 2.0 0.00 0.00 0.00 88 1020.6
20240713002536 75 151 1.0 2.0 0.00 0.00 0.00 88 1020.6
20240713002036 75 146 0.0 2.0 0.00 0.00 0.00 88 1020.6
20240713001539 75 257 0.0 2.0 0.00 0.00 0.00 88 1020.5
20240713001037 75 239 0.0 1.0 0.00 0.00 0.00 88 1020.7
20240713000536 76 239 0.0 1.0 0.00 0.00 0.00 88 1020.6
20240713000035 76 239 0.0 1.0 0.00 0.00 0.00 88 1020.4
20240712235535 76 239 0.0 1.0 0.00 0.00 0.00 88 1020.4
20240712235036 76 239 0.0 1.0 0.00 0.00 0.00 87 1020.4
20240712234536 76 239 0.0 1.0 0.00 0.00 0.00 87 1020.5
20240712234034 76 239 0.0 2.0 0.00 0.00 0.00 87 1020.4
20240712233535 76 239 0.0 2.0 0.00 0.00 0.00 87 1020.2
20240712233034 76 122 0.0 1.0 0.00 0.00 0.00 87 1020.4
20240712232535 77 47 0.0 1.0 0.00 0.00 0.00 86 1020.3
20240712232036 77 47 0.0 1.0 0.00 0.00 0.00 86 1020.4
20240712231545 77 89 0.0 2.0 0.00 0.00 0.00 86 1020.3
20240712231034 77 89 0.0 2.0 0.00 0.00 0.00 86 1020.2
20240712230534 77 89 1.0 2.0 0.00 0.00 0.00 86 1020.2
20240712230034 77 89 0.0 3.0 0.00 0.00 0.00 87 1020.1
20240712225532 78 89 1.0 3.0 0.00 0.00 0.00 84 1020.0
20240712225034 78 359 0.0 2.0 0.00 0.00 0.00 86 1020.0
20240712224632 78 346 0.0 1.0 0.00 0.00 0.00 85 1019.9
20240712224032 78 346 0.0 1.0 0.00 0.00 0.00 85 1019.9
20240712223533 78 346 0.0 0.0 0.00 0.00 0.00 84 1019.8
20240712223032 78 346 0.0 0.0 0.00 0.00 0.00 84 1019.7
20240712222534 78 346 0.0 1.0 0.00 0.00 0.00 84 1019.6
20240712222032 78 346 0.0 1.0 0.00 0.00 0.00 84 1019.6
20240712221532 78 346 0.0 1.0 0.00 0.00 0.00 83 1019.5
20240712221032 79 346 0.0 1.0 0.00 0.00 0.00 83 1019.5
20240712220532 79 346 0.0 1.0 0.00 0.00 0.00 83 1019.7
20240712220038 79 346 0.0 1.0 0.00 0.00 0.00 81 1019.8
20240712215531 80 346 0.0 1.0 0.00 0.00 0.00 81 1019.8
20240712215033 80 346 0.0 1.0 0.00 0.00 0.00 80 1019.8
20240712214532 80 346 0.0 1.0 0.00 0.00 0.00 79 1019.8
20240712214030 81 346 0.0 2.0 0.00 0.00 0.00 79 1019.7
20240712213530 81 346 0.0 3.0 0.00 0.00 0.00 77 1019.6
20240712213030 81 181 0.0 3.0 0.00 0.00 0.00 77 1019.7
20240712212529 81 162 0.0 2.0 0.00 0.00 0.00 76 1019.6
20240712212029 82 71 0.0 2.0 0.00 0.00 0.00 78 1019.5
20240712211532 82 69 1.0 2.0 0.00 0.00 0.00 77 1019.5
20240712211029 82 62 1.0 4.0 0.00 0.00 0.00 75 1019.6
20240712210530 82 145 1.0 4.0 0.00 0.00 0.00 76 1019.6
20240712210028 82 212 0.0 3.0 0.00 0.00 0.00 75 1019.6
20240712205528 83 109 0.0 3.0 0.00 0.00 0.00 74 1019.7
20240712205029 83 199 1.0 4.0 0.00 0.00 0.00 72 1019.7
20240712204527 83 121 0.0 6.0 0.00 0.00 0.00 72 1019.7
20240712204028 84 271 0.0 6.0 0.00 0.00 0.00 73 1019.7
20240712203527 84 109 2.0 4.0 0.00 0.00 0.00 70 1019.6
20240712203027 84 103 0.0 4.0 0.00 0.00 0.00 73 1019.6
20240712202528 84 106 1.0 4.0 0.00 0.00 0.00 72 1019.6
20240712202029 84 46 0.0 4.0 0.00 0.00 0.00 71 1019.5
20240712201535 85 106 1.0 3.0 0.00 0.00 0.00 70 1019.5
20240712201025 86 357 1.0 4.0 0.00 0.00 0.00 69 1019.6
20240712200525 86 80 1.0 6.0 0.00 0.00 0.00 70 1019.5
20240712200025 86 154 1.0 6.0 0.00 0.00 0.00 67 1019.6
20240712195523 86 58 0.0 3.0 0.00 0.00 0.00 67 1019.7
20240712195024 86 333 1.0 3.0 0.00 0.00 0.00 68 1019.6
20240712194524 86 162 0.0 6.0 0.00 0.00 0.00 67 1019.7
20240712194024 86 83 2.0 6.0 0.00 0.00 0.00 67 1019.9
20240712193524 86 99 1.0 4.0 0.00 0.00 0.00 67 1019.9
20240712193022 86 135 1.0 7.0 0.00 0.00 0.00 66 1019.9
20240712192523 86 47 1.0 7.0 0.00 0.00 0.00 65 1019.9
20240712192020 86 226 1.0 5.0 0.00 0.00 0.00 67 1019.9
20240712191520 86 67 1.0 5.0 0.00 0.00 0.00 68 1019.9
20240712191022 85 91 1.0 9.0 0.00 0.00 0.00 68 1019.9
20240712190521 85 28 2.0 9.0 0.00 0.00 0.00 67 1020.0
20240712190021 85 82 2.0 6.0 0.00 0.00 0.00 65 1020.0
20240712185523 85 126 1.0 4.0 0.00 0.00 0.00 66 1020.1
20240712185021 85 33 1.0 4.0 0.00 0.00 0.00 70 1020.0
20240712184519 85 104 1.0 6.0 0.00 0.00 0.00 70 1019.9
20240712184019 85 97 1.0 6.0 0.00 0.00 0.00 68 1019.9
20240712183519 84 314 2.0 4.0 0.00 0.00 0.00 66 1019.9
20240712183019 84 122 1.0 4.0 0.00 0.00 0.00 71 1019.9
20240712182518 85 175 1.0 4.0 0.00 0.00 0.00 69 1019.9
20240712182018 85 322 1.0 4.0 0.00 0.00 0.00 69 1020.2
20240712181524 86 93 2.0 6.0 0.00 0.00 0.00 65 1020.0
20240712181021 86 50 1.0 6.0 0.00 0.00 0.00 65 1020.0
20240712180519 86 117 1.0 6.0 0.00 0.00 0.00 66 1019.9
20240712180017 86 79 1.0 3.0 0.00 0.00 0.00 66 1019.8
20240712175517 86 69 1.0 4.0 0.00 0.00 0.00 67 1020.0
20240712175016 86 14 1.0 4.0 0.00 0.00 0.00 68 1019.9
20240712174515 85 116 1.0 4.0 0.00 0.00 0.00 69 1019.9
20240712174013 85 23 1.0 3.0 0.00 0.00 0.00 69 1020.0
20240712173513 84 60 1.0 3.0 0.00 0.00 0.00 70 1019.9
20240712173016 84 83 1.0 3.0 0.00 0.00 0.00 72 1020.1
20240712172518 84 28 0.0 4.0 0.00 0.00 0.00 72 1020.2
20240712172013 84 90 1.0 4.0 0.00 0.00 0.00 70 1020.2
20240712171512 84 14 0.0 4.0 0.00 0.00 0.00 71 1020.4
20240712171013 84 343 1.0 5.0 0.00 0.00 0.00 69 1020.4
20240712170513 84 253 0.0 8.0 0.00 0.00 0.00 68 1020.4
20240712170012 85 114 2.0 8.0 0.00 0.00 0.00 68 1020.5
20240712165509 84 137 1.0 4.0 0.00 0.00 0.00 73 1020.6
20240712165010 83 127 1.0 4.0 0.00 0.00 0.00 72 1020.5
20240712164515 83 101 1.0 6.0 0.00 0.00 0.00 72 1020.5
20240712164010 83 28 1.0 6.0 0.00 0.00 0.00 72 1020.5
20240712163507 83 88 1.0 5.0 0.00 0.00 0.00 72 1020.4
20240712163007 83 81 0.0 6.0 0.00 0.00 0.00 71 1020.4
20240712162507 83 44 2.0 6.0 0.00 0.00 0.00 70 1020.4
20240712162008 83 51 1.0 4.0 0.00 0.00 0.00 70 1020.4
20240712161508 83 59 1.0 8.0 0.00 0.00 0.00 72 1020.4
20240712161007 83 48 3.0 8.0 0.00 0.00 0.00 71 1020.4
20240712160506 83 70 1.0 5.0 0.00 0.00 0.00 73 1020.3
20240712160008 83 81 0.0 4.0 0.00 0.00 0.00 73 1020.4
20240712155504 82 228 0.0 5.0 0.00 0.00 0.00 73 1020.2
20240712155004 82 105 2.0 5.0 0.00 0.00 0.00 73 1020.2
20240712154503 82 342 1.0 4.0 0.00 0.00 0.00 73 1020.2
20240712154003 82 289 1.0 3.0 0.00 0.00 0.00 75 1020.1
20240712153503 81 104 0.0 3.0 0.00 0.00 0.00 75 1020.1
20240712153005 81 8 1.0 3.0 0.00 0.00 0.00 75 1019.9
20240712152503 81 88 1.0 4.0 0.00 0.00 0.00 75 1019.9
20240712152003 81 23 2.0 9.0 0.00 0.00 0.00 74 1019.9
20240712151504 80 72 1.0 9.0 0.00 0.00 0.00 77 1019.9
20240712151002 80 135 1.0 7.0 0.00 0.00 0.00 74 1020.1
20240712150503 80 170 1.0 6.0 0.00 0.00 0.00 75 1020.2
20240712150002 81 93 3.0 6.0 0.00 0.00 0.00 73 1020.2
20240712145504 82 123 1.0 8.0 0.00 0.00 0.00 72 1020.2
20240712145002 82 87 1.0 8.0 0.00 0.00 0.00 73 1020.1
20240712144601 82 108 1.0 5.0 0.00 0.00 0.00 73 1020.1
20240712144101 81 12 1.0 4.0 0.00 0.00 0.00 76 1020.1
20240712143559 81 56 1.0 5.0 0.00 0.00 0.00 76 1019.9
20240712143059 81 19 2.0 5.0 0.00 0.00 0.00 75 1020.1
20240712142559 81 87 1.0 4.0 0.00 0.00 0.00 77 1020.2
20240712142101 81 3 1.0 2.0 0.00 0.00 0.00 76 1020.3
20240712141624 81 7 0.0 2.0 0.00 0.00 0.00 76 1020.3
20240712141057 81 124 0.0 4.0 0.00 0.00 0.00 75 1020.3
20240712140557 81 124 0.0 4.0 0.00 0.00 0.00 77 1020.3
20240712140058 81 182 1.0 6.0 0.00 0.00 0.00 75 1020.3
20240712135556 81 106 2.0 6.0 0.00 0.00 0.00 74 1020.3
20240712135058 81 97 1.0 6.0 0.00 0.00 0.00 76 1020.4
20240712134555 81 110 2.0 6.0 0.00 0.00 0.00 75 1020.3
20240712134054 80 148 1.0 4.0 0.00 0.00 0.00 77 1020.4
20240712133554 80 18 1.0 4.0 0.00 0.00 0.00 78 1020.4
20240712133053 80 62 1.0 6.0 0.00 0.00 0.00 78 1020.4
20240712132551 79 63 1.0 6.0 0.00 0.00 0.00 79 1020.5
20240712132050 79 94 2.0 6.0 0.00 0.00 0.00 79 1020.4
20240712131549 79 142 1.0 5.0 0.00 0.00 0.00 78 1020.3
20240712131049 79 125 1.0 3.0 0.00 0.00 0.00 80 1020.2
20240712130549 78 111 0.0 0.0 0.00 0.00 0.00 82 1020.3
20240712130047 78 351 0.0 0.0 0.00 0.00 0.00 82 1020.4
20240712125546 78 351 0.0 0.0 0.00 0.00 0.00 81 1020.3
20240712125045 78 98 0.0 0.0 0.00 0.00 0.00 82 1020.4
20240712124544 78 93 0.0 0.0 0.00 0.00 0.00 82 1020.2
20240712124043 77 132 0.0 0.0 0.00 0.00 0.00 83 1020.1
20240712123543 76 128 0.0 0.0 0.00 0.00 0.00 85 1020.2
20240712123040 76 52 0.0 0.0 0.00 0.00 0.00 84 1020.2
20240712122539 76 50 0.0 0.0 0.00 0.00 0.00 84 1020.2
20240712122039 76 50 0.0 0.0 0.00 0.00 0.00 85 1020.3
20240712121539 75 108 0.0 0.0 0.00 0.00 0.00 87 1020.2
20240712121035 74 130 0.0 0.0 0.00 0.00 0.00 88 1020.3
20240712120533 73 130 0.0 0.0 0.00 0.00 0.00 89 1020.0
20240712120034 73 130 0.0 0.0 0.00 0.00 0.00 90 1020.0
20240712115534 72 349 0.0 0.0 0.00 0.00 0.00 90 1020.1
20240712115030 71 349 0.0 0.0 0.00 0.00 0.00 91 1019.9
20240712114529 71 349 0.0 0.0 0.00 0.00 0.00 92 1019.8
20240712114030 70 349 0.0 0.0 0.00 0.00 0.00 93 1019.7
20240712113530 70 349 0.0 0.0 0.00 0.00 0.00 93 1019.7
20240712113028 69 349 0.0 0.0 0.00 0.00 0.00 94 1019.8
20240712112528 69 308 0.0 0.0 0.00 0.00 0.00 94 1019.7
20240712112027 68 308 0.0 0.0 0.00 0.00 0.00 95 1019.7
20240712111531 68 308 0.0 0.0 0.00 0.00 0.00 95 1019.6
20240712111027 68 308 0.0 0.0 0.00 0.00 0.00 95 1019.7
20240712110526 68 307 0.0 0.0 0.00 0.00 0.00 95 1019.6
20240712110026 68 307 0.0 0.0 0.00 0.00 0.00 95 1019.6
20240712105525 68 301 0.0 0.0 0.00 0.00 0.00 96 1019.6
20240712105027 67 301 0.0 0.0 0.00 0.00 0.00 96 1019.4
20240712104524 67 301 0.0 0.0 0.00 0.00 0.00 96 1019.2
20240712104026 67 301 0.0 0.0 0.00 0.00 0.00 97 1019.3
20240712103523 67 301 0.0 0.0 0.00 0.00 0.00 97 1019.2
20240712103040 67 301 0.0 0.0 0.00 0.00 0.00 97 1019.2
20240712102525 66 301 0.0 0.0 0.00 0.00 0.00 97 1019.1
20240712102022 66 301 0.0 0.0 0.00 0.00 0.00 97 1019.1
20240712101522 66 301 0.0 0.0 0.00 0.00 0.00 97 1019.0
20240712101024 66 301 0.0 0.0 0.00 0.00 0.00 97 1019.0
20240712100520 66 301 0.0 0.0 0.00 0.00 0.00 97 1018.9
20240712100020 66 301 0.0 0.0 0.00 0.00 0.00 96 1018.9
20240712095521 66 301 0.0 0.0 0.00 0.00 0.00 96 1018.9
20240712095020 66 301 0.0 0.0 0.00 0.00 0.00 96 1018.8
20240712094519 66 301 0.0 0.0 0.00 0.00 0.00 96 1018.8
20240712094019 66 301 0.0 0.0 0.00 0.00 0.00 96 1018.9
20240712093517 66 307 0.0 0.0 0.00 0.00 0.00 96 1018.7
20240712093026 66 307 0.0 0.0 0.00 0.00 0.00 96 1018.8
20240712092516 66 307 0.0 0.0 0.00 0.00 0.00 96 1018.7
20240712092018 66 307 0.0 0.0 0.00 0.00 0.00 96 1018.7
20240712091515 67 307 0.0 0.0 0.00 0.00 0.00 96 1018.7
20240712091013 67 307 0.0 0.0 0.00 0.00 0.00 95 1018.7
20240712090513 67 335 0.0 0.0 0.00 0.00 0.00 95 1018.5
20240712090012 67 335 0.0 0.0 0.00 0.00 0.00 95 1018.5
20240712085511 67 335 0.0 0.0 0.00 0.00 0.00 95 1018.3
20240712085011 67 335 0.0 0.0 0.00 0.00 0.00 95 1018.3
20240712084510 67 335 0.0 0.0 0.00 0.00 0.00 95 1018.3
20240712084010 67 335 0.0 0.0 0.00 0.00 0.00 94 1018.2
20240712083510 67 335 0.0 0.0 0.00 0.00 0.00 94 1018.2
20240712083014 67 335 0.0 0.0 0.00 0.00 0.00 94 1018.1
20240712082507 67 335 0.0 0.0 0.00 0.00 0.00 94 1018.2
20240712082011 67 335 0.0 0.0 0.00 0.00 0.00 94 1017.9
20240712081507 67 335 0.0 0.0 0.00 0.00 0.00 94 1017.9
20240712081012 67 335 0.0 0.0 0.00 0.00 0.00 94 1017.9
20240712080506 68 335 0.0 0.0 0.00 0.00 0.00 94 1017.8
20240712080006 68 335 0.0 0.0 0.00 0.00 0.00 94 1017.8
20240712075505 68 335 0.0 0.0 0.00 0.00 0.00 94 1017.8
20240712075005 68 335 0.0 0.0 0.00 0.00 0.00 94 1017.9
20240712074505 68 335 0.0 0.0 0.00 0.00 0.00 94 1017.9
20240712074004 68 335 0.0 0.0 0.00 0.00 0.00 94 1017.8
20240712073507 68 335 0.0 0.0 0.00 0.00 0.00 94 1017.8
20240712073005 68 335 0.0 0.0 0.00 0.00 0.00 94 1017.7
20240712072505 68 335 0.0 0.0 0.00 0.00 0.00 94 1017.8
20240712072002 68 335 0.0 0.0 0.00 0.00 0.00 94 1017.7
20240712071501 68 335 0.0 0.0 0.00 0.00 0.00 94 1017.8
20240712071002 68 335 0.0 0.0 0.00 0.00 0.00 93 1017.7
20240712070502 68 335 0.0 0.0 0.00 0.00 0.00 93 1017.6
20240712070100 68 335 0.0 0.0 0.00 0.00 0.00 93 1017.7
20240712065559 68 335 0.0 0.0 0.00 0.00 0.00 93 1017.6
20240712065102 68 335 0.0 0.0 0.00 0.00 0.00 93 1017.6
20240712064558 68 335 0.0 0.0 0.00 0.00 0.00 93 1017.6
20240712064057 68 335 0.0 0.0 0.00 0.00 0.00 93 1017.6
20240712063556 69 335 0.0 0.0 0.00 0.00 0.00 92 1017.6
20240712063055 69 335 0.0 0.0 0.00 0.00 0.00 92 1017.7
20240712062555 69 335 0.0 0.0 0.00 0.00 0.00 92 1017.5
20240712062054 69 335 0.0 0.0 0.00 0.00 0.00 92 1017.6
20240712061601 69 335 0.0 0.0 0.00 0.00 0.00 92 1017.5
20240712061056 69 335 0.0 0.0 0.00 0.00 0.00 92 1017.4
20240712060557 69 335 0.0 0.0 0.00 0.00 0.00 92 1017.3
20240712060053 69 335 0.0 0.0 0.00 0.00 0.00 92 1017.3
20240712055551 69 335 0.0 0.0 0.00 0.00 0.00 92 1017.2
20240712055051 70 335 0.0 0.0 0.00 0.00 0.00 91 1017.3
20240712054550 70 335 0.0 0.0 0.00 0.00 0.00 91 1017.3
20240712054049 70 335 0.0 0.0 0.00 0.00 0.00 91 1017.3
20240712053549 70 335 0.0 0.0 0.00 0.00 0.00 91 1017.3
20240712053049 70 335 0.0 0.0 0.00 0.00 0.00 91 1017.2
20240712052548 70 335 0.0 0.0 0.00 0.00 0.00 91 1017.2
20240712052048 70 335 0.0 0.0 0.00 0.00 0.00 91 1017.2
20240712051547 70 335 0.0 0.0 0.00 0.00 0.00 91 1017.0
20240712051046 71 335 0.0 0.0 0.00 0.00 0.00 90 1017.0
20240712050546 71 335 0.0 0.0 0.00 0.00 0.00 90 1017.0
20240712050058 71 335 0.0 2.0 0.00 0.00 0.00 90 1017.0
20240712045543 71 335 0.0 2.0 0.00 0.00 0.00 90 1017.0
20240712045043 71 334 0.0 2.0 0.00 0.00 0.00 90 1016.9
20240712044542 71 160 0.0 1.0 0.00 0.00 0.00 90 1016.8
20240712044043 71 160 0.0 2.0 0.00 0.00 0.00 90 1016.8
20240712043542 71 160 0.0 2.0 0.00 0.00 0.00 89 1016.7
20240712043042 71 160 0.0 1.0 0.00 0.00 0.00 89 1016.8
20240712042540 72 160 0.0 2.0 0.00 0.00 0.00 89 1016.9
20240712042044 72 160 0.0 2.0 0.00 0.00 0.00 88 1016.8
20240712041542 72 204 0.0 0.0 0.00 0.00 0.00 88 1016.8
20240712041039 72 204 0.0 0.0 0.00 0.00 0.00 89 1016.8
20240712040542 72 251 0.0 0.0 0.00 0.00 0.00 88 1016.8
20240712040038 72 251 0.0 0.0 0.00 0.00 0.00 88 1016.8